Location: Copper Breaks State Park
(34.1132°N, 99.7492°W)
Time: 10:52:53
(UTC-06:00)

SL-16 R/B - Visible Passes

Search period start: 27 January 2015 00:00
Search period end: 06 February 2015 00:00
Orbit: 985 x 1007 km, 99.2° (Epoch: 26 January)

Date Brightness Start Highest point End Pass type
(mag) Time Alt. Az. Time Alt. Az. Time Alt. Az.
28 Jan 4.9 18:32:49 10° NNW 18:37:18 20° WNW 18:41:33 10° WSW visible
29 Jan 5.3 19:06:15 10° NW 19:07:47 11° WNW 19:08:54 10° WNW visible
01 Feb 5.1 18:53:50 10° NNW 18:56:54 14° WNW 18:59:36 10° W visible
04 Feb 5.0 18:42:04 10° NNW 18:46:00 17° WNW 18:49:39 10° W visible
